User: anonymous   Login
Location: Unspecified
(0.0000°N, 0.0000°E)
Time: 00:04:48
(UTC+00:00)
Language:

STARLINK-5120 - Orbit

View from above orbital plane
View from above orbital plane
View from above satellite
View from above satellite

Ground track
Ground track

The orbit is defined by the following mean orbital elements,

1 53982U          26144.67779199 +.00000000 +00000-0 +37759-4 0 00007
2 53982  53.2136 233.0342 0001135  86.3248 273.7874 15.08836221    01
Epoch (UTC): 24 May 2026 16:16:01
Eccentricity: 0.0001135
inclination: 53.2136°
perigee height: 539 km
apogee height: 541 km
right ascension of ascending node: 233.0342°
argument of perigee: 86.3248°
revolutions per day: 15.08836221
mean anomaly at epoch: 273.7874°

The dashed part of the orbit path shows where the satellite is in the earth's shadow,  

DLR